| time (UTC) | temp C | wind direction | speed KPH | gust KPH | rain 1hr cm | rain 24hr cm | rain mn cm | humidity % | barometer mb |
| 20260901095155 | 22 | 163 | 0.0 | 0.0 | 0.00 | 0.00 | 0.00 | 81 | 1017.4 |
| 20260901094650 | 22 | 163 | 0.0 | 0.0 | 0.00 | 0.00 | 0.00 | 81 | 1017.5 |
| 20260901094150 | 22 | 163 | 0.0 | 0.0 | 0.00 | 0.00 | 0.00 | 81 | 1017.3 |
| 20260901093651 | 22 | 163 | 0.0 | 0.0 | 0.00 | 0.00 | 0.00 | 80 | 1017.4 |
| 20260901093150 | 22 | 163 | 0.0 | 0.0 | 0.00 | 0.00 | 0.00 | 80 | 1017.3 |
| 20260901092640 | 22 | 164 | 0.0 | 0.0 | 0.00 | 0.00 | 0.00 | 79 | 1017.2 |
| 20260901092136 | 23 | 166 | 0.0 | 0.0 | 0.00 | 0.00 | 0.00 | 79 | 1017.3 |
| 20260901091631 | 23 | 168 | 0.0 | 0.0 | 0.00 | 0.00 | 0.00 | 78 | 1017.3 |
| 20260901091126 | 23 | 171 | 0.0 | 0.0 | 0.00 | 0.00 | 0.00 | 78 | 1017.3 |
| 20260901090621 | 23 | 174 | 0.0 | 0.0 | 0.00 | 0.00 | 0.00 | 78 | 1017.2 |
| 20260901090117 | 23 | 174 | 0.0 | 0.0 | 0.00 | 0.00 | 0.00 | 77 | 1017.3 |
| 20260901085612 | 23 | 174 | 0.0 | 0.0 | 0.00 | 0.00 | 0.00 | 77 | 1017.1 |
| 20260901085108 | 23 | 174 | 0.0 | 0.0 | 0.00 | 0.00 | 0.00 | 77 | 1017.2 |
| 20260901084604 | 23 | 174 | 0.0 | 0.0 | 0.00 | 0.00 | 0.00 | 76 | 1017.2 |
| 20260901084100 | 23 | 174 | 0.0 | 0.0 | 0.00 | 0.00 | 0.00 | 76 | 1017.1 |
| 20260901083554 | 23 | 174 | 0.0 | 0.0 | 0.00 | 0.00 | 0.00 | 76 | 1017.2 |
| 20260901083052 | 23 | 174 | 0.0 | 0.0 | 0.00 | 0.00 | 0.00 | 76 | 1017.0 |
| 20260901082547 | 23 | 174 | 0.0 | 0.0 | 0.00 | 0.00 | 0.00 | 75 | 1017.1 |
| 20260901082043 | 23 | 174 | 0.0 | 0.0 | 0.00 | 0.00 | 0.00 | 75 | 1017.1 |
| 20260901081538 | 23 | 174 | 0.0 | 0.0 | 0.00 | 0.00 | 0.00 | 75 | 1017.1 |
| 20260901081032 | 23 | 173 | 0.0 | 0.0 | 0.00 | 0.00 | 0.00 | 74 | 1016.9 |
| 20260901080532 | 23 | 171 | 0.0 | 0.0 | 0.00 | 0.00 | 0.00 | 74 | 1017.1 |
| 20260901080026 | 23 | 188 | 0.0 | 0.0 | 0.00 | 0.00 | 0.00 | 74 | 1017.0 |
| 20260901075522 | 23 | 171 | 0.0 | 0.0 | 0.00 | 0.00 | 0.00 | 74 | 1016.9 |
| 20260901075021 | 23 | 171 | 0.0 | 0.0 | 0.00 | 0.00 | 0.00 | 74 | 1017.1 |
| 20260901074520 | 23 | 171 | 0.0 | 0.0 | 0.00 | 0.00 | 0.00 | 74 | 1016.9 |
| 20260901074016 | 23 | 167 | 0.0 | 0.0 | 0.00 | 0.00 | 0.00 | 73 | 1017.0 |
| 20260901073512 | 23 | 168 | 0.0 | 0.0 | 0.00 | 0.00 | 0.00 | 74 | 1017.0 |
| 20260901073007 | 23 | 177 | 0.0 | 0.0 | 0.00 | 0.00 | 0.00 | 74 | 1017.1 |
| 20260901072502 | 23 | 173 | 0.0 | 0.0 | 0.00 | 0.00 | 0.00 | 73 | 1017.2 |
| 20260901071957 | 23 | 173 | 0.0 | 0.0 | 0.00 | 0.00 | 0.00 | 73 | 1017.0 |
| 20260901071456 | 23 | 179 | 0.0 | 0.0 | 0.00 | 0.00 | 0.00 | 73 | 1017.1 |
| 20260901070955 | 23 | 181 | 0.0 | 0.0 | 0.00 | 0.00 | 0.00 | 73 | 1017.0 |
| 20260901070451 | 24 | 175 | 0.0 | 0.0 | 0.00 | 0.00 | 0.00 | 73 | 1017.0 |
| 20260901065949 | 24 | 177 | 0.0 | 0.0 | 0.00 | 0.00 | 0.00 | 72 | 1017.1 |
| 20260901065445 | 24 | 177 | 0.0 | 0.0 | 0.00 | 0.00 | 0.00 | 72 | 1017.0 |
| 20260901064940 | 24 | 170 | 0.0 | 0.0 | 0.00 | 0.00 | 0.00 | 72 | 1017.0 |
| 20260901064436 | 24 | 171 | 0.0 | 0.0 | 0.00 | 0.00 | 0.00 | 72 | 1017.2 |
| 20260901063933 | 24 | 165 | 0.0 | 0.0 | 0.00 | 0.00 | 0.00 | 72 | 1017.1 |
| 20260901063429 | 24 | 166 | 0.0 | 0.0 | 0.00 | 0.00 | 0.00 | 72 | 1017.2 |
| 20260901062925 | 25 | 167 | 0.0 | 0.0 | 0.00 | 0.00 | 0.00 | 71 | 1017.2 |
| 20260901062421 | 25 | 167 | 0.0 | 0.0 | 0.00 | 0.00 | 0.00 | 71 | 1017.2 |
| 20260901061916 | 25 | 167 | 0.0 | 0.0 | 0.00 | 0.00 | 0.00 | 70 | 1017.0 |
| 20260901061412 | 25 | 163 | 0.0 | 0.0 | 0.00 | 0.00 | 0.00 | 70 | 1017.1 |
| 20260901060907 | 25 | 172 | 0.0 | 0.0 | 0.00 | 0.00 | 0.00 | 69 | 1017.2 |
| 20260901060403 | 25 | 169 | 0.0 | 0.0 | 0.00 | 0.00 | 0.00 | 69 | 1017.1 |
| 20260901055902 | 25 | 169 | 0.0 | 0.0 | 0.00 | 0.00 | 0.00 | 69 | 1017.2 |
| 20260901055358 | 25 | 169 | 0.0 | 0.0 | 0.00 | 0.00 | 0.00 | 70 | 1017.1 |
| 20260901054854 | 25 | 169 | 0.0 | 0.0 | 0.00 | 0.00 | 0.00 | 70 | 1016.9 |
| 20260901054352 | 25 | 169 | 0.0 | 0.0 | 0.00 | 0.00 | 0.00 | 70 | 1017.2 |
| 20260901053847 | 25 | 170 | 0.0 | 0.0 | 0.00 | 0.00 | 0.00 | 70 | 1017.0 |
| 20260901053343 | 25 | 170 | 0.0 | 0.0 | 0.00 | 0.00 | 0.00 | 70 | 1017.1 |
| 20260901052838 | 25 | 170 | 0.0 | 0.0 | 0.00 | 0.00 | 0.00 | 70 | 1017.1 |
| 20260901052333 | 25 | 169 | 0.0 | 0.0 | 0.00 | 0.00 | 0.00 | 70 | 1016.9 |
| 20260901051832 | 25 | 170 | 0.0 | 0.0 | 0.00 | 0.00 | 0.00 | 69 | 1016.9 |
| 20260901051327 | 25 | 170 | 0.0 | 0.0 | 0.00 | 0.00 | 0.00 | 69 | 1016.8 |
| 20260901050822 | 25 | 170 | 0.0 | 0.0 | 0.00 | 0.00 | 0.00 | 67 | 1016.8 |
| 20260901050318 | 25 | 170 | 0.0 | 0.0 | 0.00 | 0.00 | 0.00 | 67 | 1016.8 |
| 20260901045808 | 25 | 170 | 0.0 | 0.0 | 0.00 | 0.00 | 0.00 | 67 | 1016.7 |
| 20260901045307 | 25 | 170 | 0.0 | 0.0 | 0.00 | 0.00 | 0.00 | 67 | 1016.8 |
| 20260901044803 | 26 | 170 | 0.0 | 0.0 | 0.00 | 0.00 | 0.00 | 66 | 1016.9 |
| 20260901044259 | 26 | 170 | 0.0 | 0.0 | 0.00 | 0.00 | 0.00 | 66 | 1016.9 |
| 20260901043754 | 26 | 169 | 0.0 | 0.0 | 0.00 | 0.00 | 0.00 | 66 | 1016.9 |
| 20260901043250 | 26 | 170 | 0.0 | 0.0 | 0.00 | 0.00 | 0.00 | 65 | 1016.8 |
| 20260901042749 | 26 | 168 | 0.0 | 0.0 | 0.00 | 0.00 | 0.00 | 64 | 1016.9 |
| 20260901042244 | 26 | 172 | 0.0 | 0.0 | 0.00 | 0.00 | 0.00 | 64 | 1016.8 |
| 20260901041740 | 27 | 172 | 0.0 | 0.0 | 0.00 | 0.00 | 0.00 | 63 | 1016.8 |
| 20260901041240 | 27 | 172 | 0.0 | 0.0 | 0.00 | 0.00 | 0.00 | 62 | 1016.6 |
| 20260901040735 | 27 | 178 | 0.0 | 0.0 | 0.00 | 0.00 | 0.00 | 61 | 1016.7 |
| 20260901040234 | 27 | 167 | 0.0 | 0.0 | 0.00 | 0.00 | 0.00 | 60 | 1016.8 |
| 20260901035732 | 27 | 165 | 0.0 | 0.0 | 0.00 | 0.00 | 0.00 | 60 | 1016.9 |
| 20260901035232 | 27 | 165 | 0.0 | 0.0 | 0.00 | 0.00 | 0.00 | 60 | 1016.9 |
| 20260901034731 | 27 | 170 | 0.0 | 0.0 | 0.00 | 0.00 | 0.00 | 60 | 1016.8 |
| 20260901034226 | 27 | 185 | 0.0 | 0.0 | 0.00 | 0.00 | 0.00 | 60 | 1017.0 |
| 20260901033726 | 27 | 179 | 0.0 | 0.0 | 0.00 | 0.00 | 0.00 | 59 | 1016.8 |
| 20260901033225 | 27 | 169 | 0.0 | 0.0 | 0.00 | 0.00 | 0.00 | 59 | 1017.1 |
| 20260901032718 | 28 | 156 | 0.0 | 0.0 | 0.00 | 0.00 | 0.00 | 59 | 1016.8 |
| 20260901032212 | 28 | 173 | 0.0 | 0.0 | 0.00 | 0.00 | 0.00 | 58 | 1017.0 |
| 20260901031708 | 28 | 179 | 0.0 | 0.0 | 0.00 | 0.00 | 0.00 | 58 | 1016.8 |
| 20260901031203 | 28 | 176 | 0.0 | 0.0 | 0.00 | 0.00 | 0.00 | 58 | 1016.8 |
| 20260901030658 | 28 | 172 | 0.0 | 0.0 | 0.00 | 0.00 | 0.00 | 58 | 1016.9 |
| 20260901030153 | 28 | 174 | 0.0 | 0.0 | 0.00 | 0.00 | 0.00 | 57 | 1016.8 |
| 20260901025648 | 28 | 174 | 0.0 | 0.0 | 0.00 | 0.00 | 0.00 | 57 | 1016.6 |
| 20260901025142 | 28 | 185 | 0.0 | 0.0 | 0.00 | 0.00 | 0.00 | 57 | 1016.8 |
| 20260901024641 | 28 | 173 | 0.0 | 0.0 | 0.00 | 0.00 | 0.00 | 56 | 1016.6 |
| 20260901024136 | 28 | 173 | 0.0 | 0.0 | 0.00 | 0.00 | 0.00 | 56 | 1016.5 |
| 20260901023635 | 28 | 149 | 0.0 | 0.0 | 0.00 | 0.00 | 0.00 | 56 | 1016.1 |
| 20260901023129 | 28 | 167 | 0.0 | 0.0 | 0.00 | 0.00 | 0.00 | 56 | 1016.2 |
| 20260901022624 | 28 | 168 | 0.0 | 0.0 | 0.00 | 0.00 | 0.00 | 56 | 1016.4 |
| 20260901022120 | 28 | 169 | 0.0 | 0.0 | 0.00 | 0.00 | 0.00 | 56 | 1016.1 |
| 20260901021616 | 29 | 171 | 0.0 | 0.0 | 0.00 | 0.00 | 0.00 | 56 | 1016.0 |
| 20260901021110 | 29 | 164 | 0.0 | 0.0 | 0.00 | 0.00 | 0.00 | 56 | 1016.0 |
| 20260901020606 | 29 | 172 | 0.0 | 0.0 | 0.00 | 0.00 | 0.00 | 56 | 1016.0 |
| 20260901020101 | 29 | 172 | 0.0 | 0.0 | 0.00 | 0.00 | 0.00 | 56 | 1015.8 |
| 20260901015556 | 29 | 161 | 0.0 | 0.0 | 0.00 | 0.00 | 0.00 | 56 | 1015.9 |
| 20260901015056 | 29 | 169 | 0.0 | 0.0 | 0.00 | 0.00 | 0.00 | 57 | 1015.7 |
| 20260901014551 | 29 | 174 | 0.0 | 0.0 | 0.00 | 0.00 | 0.00 | 57 | 1015.7 |
| 20260901014047 | 28 | 172 | 0.0 | 0.0 | 0.00 | 0.00 | 0.00 | 58 | 1015.7 |
| 20260901013543 | 28 | 172 | 0.0 | 0.0 | 0.00 | 0.00 | 0.00 | 59 | 1015.4 |
| 20260901013038 | 29 | 172 | 0.0 | 0.0 | 0.00 | 0.00 | 0.00 | 57 | 1015.6 |
| 20260901012538 | 29 | 172 | 0.0 | 0.0 | 0.00 | 0.00 | 0.00 | 56 | 1015.6 |
| 20260901012033 | 30 | 172 | 0.0 | 0.0 | 0.00 | 0.00 | 0.00 | 56 | 1015.3 |
| 20260901011530 | 30 | 172 | 0.0 | 0.0 | 0.00 | 0.00 | 0.00 | 54 | 1015.4 |
| 20260901011027 | 30 | 172 | 0.0 | 0.0 | 0.00 | 0.00 | 0.00 | 53 | 1015.1 |
| 20260901010522 | 30 | 172 | 0.0 | 0.0 | 0.00 | 0.00 | 0.00 | 53 | 1015.3 |
| 20260901010022 | 30 | 172 | 0.0 | 0.0 | 0.00 | 0.00 | 0.00 | 52 | 1015.2 |
| 20260901005522 | 31 | 172 | 0.0 | 0.0 | 0.00 | 0.00 | 0.00 | 52 | 1015.3 |
| 20260901005017 | 31 | 172 | 0.0 | 0.0 | 0.00 | 0.00 | 0.00 | 50 | 1015.2 |
| 20260901004517 | 31 | 172 | 0.0 | 0.0 | 0.00 | 0.00 | 0.00 | 49 | 1014.9 |
| 20260901004012 | 32 | 172 | 0.0 | 0.0 | 0.00 | 0.00 | 0.00 | 49 | 1015.1 |
| 20260901003507 | 32 | 172 | 0.0 | 0.0 | 0.00 | 0.00 | 0.00 | 48 | 1015.3 |
| 20260901003005 | 32 | 172 | 0.0 | 0.0 | 0.00 | 0.00 | 0.00 | 47 | 1014.8 |
| 20260901002501 | 32 | 176 | 0.0 | 0.0 | 0.00 | 0.00 | 0.00 | 47 | 1015.0 |
| 20260901001954 | 32 | 164 | 0.0 | 0.0 | 0.00 | 0.00 | 0.00 | 46 | 1014.9 |
| 20260901001450 | 33 | 170 | 0.0 | 0.0 | 0.00 | 0.00 | 0.00 | 45 | 1014.8 |
| 20260901000945 | 33 | 178 | 0.0 | 0.0 | 0.00 | 0.00 | 0.00 | 45 | 1015.0 |
| 20260901000439 | 33 | 159 | 0.0 | 0.0 | 0.00 | 0.00 | 0.00 | 44 | 1014.9 |
| 20260831235939 | 33 | 177 | 0.0 | 0.0 | 0.00 | 0.00 | 0.00 | 43 | 1015.0 |
| 20260831235434 | 33 | 172 | 0.0 | 1.6 | 0.00 | 0.00 | 0.00 | 43 | 1015.0 |
| 20260831234929 | 34 | 169 | 0.0 | 0.0 | 0.00 | 0.00 | 0.00 | 43 | 1015.0 |
| 20260831234424 | 34 | 180 | 0.0 | 3.2 | 0.00 | 0.00 | 0.00 | 42 | 1014.9 |
| 20260831233919 | 35 | 176 | 0.0 | 0.0 | 0.00 | 0.00 | 0.00 | 42 | 1015.0 |
| 20260831233414 | 35 | 154 | 0.0 | 0.0 | 0.00 | 0.00 | 0.00 | 41 | 1014.8 |
| 20260831232910 | 35 | 161 | 0.0 | 0.0 | 0.00 | 0.00 | 0.00 | 41 | 1015.0 |
| 20260831232406 | 35 | 115 | 0.0 | 3.2 | 0.00 | 0.00 | 0.00 | 40 | 1015.1 |
| 20260831231901 | 35 | 152 | 0.0 | 1.6 | 0.00 | 0.00 | 0.00 | 40 | 1014.8 |
| 20260831231357 | 35 | 169 | 0.0 | 0.0 | 0.00 | 0.00 | 0.00 | 39 | 1015.0 |
| 20260831230852 | 35 | 162 | 0.0 | 4.8 | 0.00 | 0.00 | 0.00 | 39 | 1014.9 |
| 20260831230347 | 35 | 150 | 0.0 | 0.0 | 0.00 | 0.00 | 0.00 | 39 | 1014.8 |
| 20260831225842 | 35 | 146 | 0.0 | 4.8 | 0.00 | 0.00 | 0.00 | 39 | 1014.8 |
| 20260831225336 | 36 | 175 | 0.0 | 1.6 | 0.00 | 0.00 | 0.00 | 38 | 1015.0 |
| 20260831224832 | 36 | 214 | 0.0 | 4.8 | 0.00 | 0.00 | 0.00 | 38 | 1015.0 |
| 20260831224327 | 36 | 142 | 0.0 | 3.2 | 0.00 | 0.00 | 0.00 | 38 | 1014.8 |
| 20260831223821 | 36 | 174 | 0.0 | 3.2 | 0.00 | 0.00 | 0.00 | 37 | 1014.9 |
| 20260831223312 | 36 | 151 | 0.0 | 3.2 | 0.00 | 0.00 | 0.00 | 36 | 1014.9 |
| 20260831222809 | 36 | 176 | 0.0 | 0.0 | 0.00 | 0.00 | 0.00 | 37 | 1015.1 |
| 20260831222306 | 36 | 162 | 0.0 | 4.8 | 0.00 | 0.00 | 0.00 | 38 | 1015.1 |
| 20260831221759 | 36 | 159 | 0.0 | 0.0 | 0.00 | 0.00 | 0.00 | 35 | 1015.0 |
| 20260831221255 | 36 | 175 | 1.6 | 3.2 | 0.00 | 0.00 | 0.00 | 35 | 1015.1 |
| 20260831220754 | 36 | 173 | 0.0 | 0.0 | 0.00 | 0.00 | 0.00 | 35 | 1015.1 |
| 20260831220249 | 36 | 139 | 1.6 | 3.2 | 0.00 | 0.00 | 0.00 | 35 | 1015.2 |
| 20260831215749 | 37 | 193 | 0.0 | 3.2 | 0.00 | 0.00 | 0.00 | 34 | 1015.1 |
| 20260831215246 | 37 | 149 | 3.2 | 6.4 | 0.00 | 0.00 | 0.00 | 34 | 1015.1 |
| 20260831214742 | 37 | 180 | 0.0 | 3.2 | 0.00 | 0.00 | 0.00 | 34 | 1015.0 |
| 20260831214239 | 38 | 184 | 0.0 | 1.6 | 0.00 | 0.00 | 0.00 | 33 | 1014.8 |
| 20260831213735 | 37 | 165 | 0.0 | 0.0 | 0.00 | 0.00 | 0.00 | 33 | 1015.0 |
| 20260831213232 | 38 | 173 | 0.0 | 3.2 | 0.00 | 0.00 | 0.00 | 33 | 1015.2 |
| 20260831212731 | 38 | 173 | 0.0 | 0.0 | 0.00 | 0.00 | 0.00 | 32 | 1015.1 |
| 20260831212228 | 38 | 150 | 1.6 | 6.4 | 0.00 | 0.00 | 0.00 | 32 | 1015.1 |
| 20260831211726 | 38 | 196 | 0.0 | 0.0 | 0.00 | 0.00 | 0.00 | 33 | 1015.3 |
| 20260831211222 | 38 | 185 | 0.0 | 0.0 | 0.00 | 0.00 | 0.00 | 33 | 1015.3 |
| 20260831210716 | 37 | 188 | 0.0 | 0.0 | 0.00 | 0.00 | 0.00 | 32 | 1015.3 |
| 20260831210208 | 37 | 175 | 0.0 | 0.0 | 0.00 | 0.00 | 0.00 | 34 | 1015.4 |
| 20260831205706 | 38 | 196 | 0.0 | 3.2 | 0.00 | 0.00 | 0.00 | 32 | 1015.5 |
| 20260831205202 | 39 | 175 | 0.0 | 4.8 | 0.00 | 0.00 | 0.00 | 32 | 1015.4 |
| 20260831204657 | 38 | 167 | 0.0 | 4.8 | 0.00 | 0.00 | 0.00 | 32 | 1015.7 |
| 20260831204156 | 38 | 182 | 0.0 | 1.6 | 0.00 | 0.00 | 0.00 | 33 | 1015.7 |
| 20260831203655 | 39 | 177 | 0.0 | 4.8 | 0.00 | 0.00 | 0.00 | 32 | 1015.7 |
| 20260831203149 | 38 | 195 | 0.0 | 3.2 | 0.00 | 0.00 | 0.00 | 32 | 1015.9 |
| 20260831202648 | 36 | 174 | 0.0 | 0.0 | 0.00 | 0.00 | 0.00 | 36 | 1016.0 |
| 20260831202143 | 37 | 182 | 0.0 | 0.0 | 0.00 | 0.00 | 0.00 | 34 | 1015.7 |
| 20260831201642 | 38 | 165 | 0.0 | 1.6 | 0.00 | 0.00 | 0.00 | 33 | 1015.8 |
| 20260831201137 | 39 | 179 | 0.0 | 4.8 | 0.00 | 0.00 | 0.00 | 33 | 1016.0 |
| 20260831200633 | 39 | 155 | 0.0 | 0.0 | 0.00 | 0.00 | 0.00 | 33 | 1015.9 |
| 20260831200133 | 40 | 155 | 0.0 | 0.0 | 0.00 | 0.00 | 0.00 | 32 | 1016.2 |
| 20260831195623 | 40 | 185 | 0.0 | 0.0 | 0.00 | 0.00 | 0.00 | 32 | 1016.0 |
| 20260831195124 | 39 | 125 | 1.6 | 3.2 | 0.00 | 0.00 | 0.00 | 32 | 1015.9 |
| 20260831194619 | 40 | 220 | 1.6 | 3.2 | 0.00 | 0.00 | 0.00 | 32 | 1016.1 |
| 20260831194114 | 38 | 125 | 1.6 | 4.8 | 0.00 | 0.00 | 0.00 | 33 | 1016.1 |
| 20260831193609 | 39 | 45 | 0.0 | 4.8 | 0.00 | 0.00 | 0.00 | 32 | 1016.1 |
| 20260831193103 | 39 | 159 | 0.0 | 3.2 | 0.00 | 0.00 | 0.00 | 32 | 1016.5 |
| 20260831192558 | 38 | 213 | 0.0 | 0.0 | 0.00 | 0.00 | 0.00 | 35 | 1016.4 |
| 20260831192053 | 38 | 173 | 0.0 | 0.0 | 0.00 | 0.00 | 0.00 | 35 | 1016.4 |
| 20260831191549 | 38 | 168 | 0.0 | 0.0 | 0.00 | 0.00 | 0.00 | 36 | 1016.5 |
| 20260831191045 | 36 | 161 | 0.0 | 0.0 | 0.00 | 0.00 | 0.00 | 38 | 1016.5 |
| 20260831190540 | 37 | 195 | 0.0 | 0.0 | 0.00 | 0.00 | 0.00 | 36 | 1016.6 |
| 20260831190038 | 37 | 184 | 0.0 | 0.0 | 0.00 | 0.00 | 0.00 | 36 | 1016.7 |
| 20260831185535 | 37 | 181 | 0.0 | 3.2 | 0.00 | 0.00 | 0.00 | 36 | 1016.7 |
| 20260831185030 | 38 | 175 | 0.0 | 1.6 | 0.00 | 0.00 | 0.00 | 35 | 1016.7 |
| 20260831184530 | 38 | 211 | 0.0 | 0.0 | 0.00 | 0.00 | 0.00 | 34 | 1016.7 |
| 20260831184025 | 40 | 121 | 0.0 | 1.6 | 0.00 | 0.00 | 0.00 | 32 | 1016.8 |
| 20260831183524 | 38 | 172 | 0.0 | 3.2 | 0.00 | 0.00 | 0.00 | 33 | 1016.8 |
| 20260831183019 | 39 | 188 | 0.0 | 3.2 | 0.00 | 0.00 | 0.00 | 35 | 1016.9 |
| 20260831182514 | 40 | 175 | 0.0 | 3.2 | 0.00 | 0.00 | 0.00 | 34 | 1017.2 |
| 20260831182009 | 39 | 164 | 0.0 | 3.2 | 0.00 | 0.00 | 0.00 | 33 | 1017.0 |
| 20260831181504 | 38 | 119 | 0.0 | 0.0 | 0.00 | 0.00 | 0.00 | 34 | 1017.0 |
| 20260831180959 | 37 | 183 | 0.0 | 3.2 | 0.00 | 0.00 | 0.00 | 36 | 1017.2 |
| 20260831180458 | 38 | 166 | 0.0 | 1.6 | 0.00 | 0.00 | 0.00 | 33 | 1017.2 |
| 20260831175958 | 38 | 187 | 0.0 | 0.0 | 0.00 | 0.00 | 0.00 | 34 | 1017.3 |
| 20260831175454 | 38 | 137 | 3.2 | 6.4 | 0.00 | 0.00 | 0.00 | 34 | 1017.4 |
| 20260831174950 | 38 | 156 | 0.0 | 3.2 | 0.00 | 0.00 | 0.00 | 38 | 1017.6 |
| 20260831174440 | 38 | 199 | 0.0 | 1.6 | 0.00 | 0.00 | 0.00 | 38 | 1017.4 |
| 20260831173939 | 37 | 114 | 0.0 | 3.2 | 0.00 | 0.00 | 0.00 | 40 | 1017.5 |
| 20260831173437 | 37 | 169 | 0.0 | 1.6 | 0.00 | 0.00 | 0.00 | 39 | 1017.4 |
| 20260831172933 | 37 | 165 | 0.0 | 4.8 | 0.00 | 0.00 | 0.00 | 40 | 1017.6 |
| 20260831172429 | 37 | 172 | 1.6 | 3.2 | 0.00 | 0.00 | 0.00 | 40 | 1017.5 |
| 20260831171924 | 37 | 203 | 1.6 | 6.4 | 0.00 | 0.00 | 0.00 | 41 | 1017.5 |
| 20260831171420 | 37 | 180 | 0.0 | 0.0 | 0.00 | 0.00 | 0.00 | 43 | 1017.7 |
| 20260831170916 | 37 | 150 | 0.0 | 1.6 | 0.00 | 0.00 | 0.00 | 43 | 1017.7 |
| 20260831170412 | 37 | 224 | 0.0 | 1.6 | 0.00 | 0.00 | 0.00 | 42 | 1017.6 |
| 20260831165909 | 37 | 177 | 0.0 | 1.6 | 0.00 | 0.00 | 0.00 | 45 | 1017.9 |
| 20260831165404 | 37 | 181 | 0.0 | 3.2 | 0.00 | 0.00 | 0.00 | 44 | 1018.0 |
| 20260831164901 | 37 | 181 | 0.0 | 0.0 | 0.00 | 0.00 | 0.00 | 43 | 1017.9 |
| 20260831164357 | 36 | 180 | 0.0 | 0.0 | 0.00 | 0.00 | 0.00 | 46 | 1018.0 |
| 20260831163852 | 36 | 186 | 0.0 | 1.6 | 0.00 | 0.00 | 0.00 | 46 | 1018.2 |
| 20260831163348 | 35 | 136 | 0.0 | 1.6 | 0.00 | 0.00 | 0.00 | 47 | 1018.2 |
| 20260831162846 | 36 | 148 | 0.0 | 0.0 | 0.00 | 0.00 | 0.00 | 46 | 1018.4 |
| 20260831162342 | 36 | 188 | 0.0 | 0.0 | 0.00 | 0.00 | 0.00 | 47 | 1018.2 |
| 20260831161840 | 35 | 122 | 1.6 | 3.2 | 0.00 | 0.00 | 0.00 | 49 | 1018.3 |
| 20260831161336 | 35 | 194 | 0.0 | 0.0 | 0.00 | 0.00 | 0.00 | 49 | 1018.2 |
| 20260831160832 | 35 | 234 | 0.0 | 3.2 | 0.00 | 0.00 | 0.00 | 49 | 1018.0 |
| 20260831160331 | 34 | 170 | 0.0 | 4.8 | 0.00 | 0.00 | 0.00 | 50 | 1018.3 |
| 20260831155826 | 35 | 169 | 0.0 | 0.0 | 0.00 | 0.00 | 0.00 | 49 | 1018.3 |
| 20260831155321 | 34 | 183 | 0.0 | 1.6 | 0.00 | 0.00 | 0.00 | 50 | 1018.2 |
| 20260831154817 | 34 | 168 | 0.0 | 6.4 | 0.00 | 0.00 | 0.00 | 51 | 1018.3 |
| 20260831154313 | 34 | 184 | 0.0 | 3.2 | 0.00 | 0.00 | 0.00 | 51 | 1018.3 |
| 20260831153812 | 33 | 160 | 0.0 | 0.0 | 0.00 | 0.00 | 0.00 | 52 | 1018.2 |
| 20260831153308 | 32 | 172 | 0.0 | 1.6 | 0.00 | 0.00 | 0.00 | 54 | 1018.3 |
| 20260831152803 | 32 | 170 | 0.0 | 3.2 | 0.00 | 0.00 | 0.00 | 53 | 1018.3 |
| 20260831152259 | 31 | 195 | 0.0 | 0.0 | 0.00 | 0.00 | 0.00 | 55 | 1018.3 |
| 20260831151754 | 32 | 192 | 0.0 | 3.2 | 0.00 | 0.00 | 0.00 | 55 | 1018.2 |
| 20260831151253 | 32 | 165 | 0.0 | 1.6 | 0.00 | 0.00 | 0.00 | 55 | 1018.2 |
| 20260831150748 | 32 | 141 | 0.0 | 1.6 | 0.00 | 0.00 | 0.00 | 55 | 1018.2 |
| 20260831150244 | 32 | 180 | 0.0 | 1.6 | 0.00 | 0.00 | 0.00 | 56 | 1018.1 |
| 20260831145743 | 31 | 145 | 1.6 | 3.2 | 0.00 | 0.00 | 0.00 | 56 | 1018.2 |
| 20260831145239 | 30 | 166 | 3.2 | 11.3 | 0.00 | 0.00 | 0.00 | 57 | 1018.0 |
| 20260831144734 | 30 | 166 | 0.0 | 3.2 | 0.00 | 0.00 | 0.00 | 59 | 1018.3 |
| 20260831144231 | 30 | 165 | 0.0 | 6.4 | 0.00 | 0.00 | 0.00 | 59 | 1017.9 |
| 20260831143730 | 30 | 189 | 0.0 | 0.0 | 0.00 | 0.00 | 0.00 | 60 | 1018.0 |
| 20260831143226 | 28 | 217 | 0.0 | 0.0 | 0.00 | 0.00 | 0.00 | 62 | 1018.0 |
| 20260831142721 | 28 | 174 | 0.0 | 1.6 | 0.00 | 0.00 | 0.00 | 63 | 1018.1 |
| 20260831142217 | 27 | 208 | 1.6 | 3.2 | 0.00 | 0.00 | 0.00 | 64 | 1018.0 |
| 20260831141716 | 27 | 181 | 0.0 | 0.0 | 0.00 | 0.00 | 0.00 | 65 | 1018.0 |
| 20260831141211 | 27 | 181 | 0.0 | 1.6 | 0.00 | 0.00 | 0.00 | 66 | 1017.9 |
| 20260831140711 | 26 | 266 | 0.0 | 0.0 | 0.00 | 0.00 | 0.00 | 66 | 1018.1 |
| 20260831140205 | 26 | 158 | 3.2 | 4.8 | 0.00 | 0.00 | 0.00 | 67 | 1018.3 |
| 20260831135703 | 26 | 183 | 0.0 | 6.4 | 0.00 | 0.00 | 0.00 | 68 | 1018.1 |
| 20260831135159 | 25 | 162 | 0.0 | 0.0 | 0.00 | 0.00 | 0.00 | 69 | 1018.1 |
| 20260831134654 | 25 | 186 | 0.0 | 0.0 | 0.00 | 0.00 | 0.00 | 70 | 1018.0 |
| 20260831134149 | 25 | 172 | 0.0 | 0.0 | 0.00 | 0.00 | 0.00 | 70 | 1018.2 |
| 20260831133648 | 25 | 169 | 0.0 | 0.0 | 0.00 | 0.00 | 0.00 | 72 | 1018.2 |
| 20260831133143 | 24 | 163 | 0.0 | 0.0 | 0.00 | 0.00 | 0.00 | 72 | 1017.9 |
| 20260831132639 | 24 | 168 | 0.0 | 0.0 | 0.00 | 0.00 | 0.00 | 73 | 1017.9 |
| 20260831132138 | 23 | 178 | 0.0 | 0.0 | 0.00 | 0.00 | 0.00 | 73 | 1018.0 |
| 20260831131633 | 23 | 176 | 0.0 | 0.0 | 0.00 | 0.00 | 0.00 | 74 | 1017.9 |
| 20260831131130 | 23 | 178 | 0.0 | 0.0 | 0.00 | 0.00 | 0.00 | 75 | 1017.8 |
| 20260831130625 | 23 | 173 | 0.0 | 0.0 | 0.00 | 0.00 | 0.00 | 75 | 1017.8 |
| 20260831130120 | 22 | 113 | 0.0 | 0.0 | 0.00 | 0.00 | 0.00 | 76 | 1017.7 |
| 20260831125618 | 22 | 171 | 0.0 | 0.0 | 0.00 | 0.00 | 0.00 | 77 | 1017.6 |
| 20260831125115 | 22 | 180 | 0.0 | 0.0 | 0.00 | 0.00 | 0.00 | 77 | 1017.4 |
| 20260831124610 | 22 | 172 | 0.0 | 0.0 | 0.00 | 0.00 | 0.00 | 78 | 1017.5 |
| 20260831124106 | 22 | 177 | 0.0 | 0.0 | 0.00 | 0.00 | 0.00 | 78 | 1017.2 |
| 20260831123606 | 21 | 163 | 0.0 | 0.0 | 0.00 | 0.00 | 0.00 | 79 | 1017.5 |
| 20260831123105 | 21 | 158 | 0.0 | 0.0 | 0.00 | 0.00 | 0.00 | 79 | 1017.3 |
| 20260831122600 | 21 | 172 | 0.0 | 0.0 | 0.00 | 0.00 | 0.00 | 79 | 1017.3 |
| 20260831122056 | 21 | 156 | 0.0 | 0.0 | 0.00 | 0.00 | 0.00 | 79 | 1017.1 |
| 20260831121555 | 21 | 179 | 0.0 | 0.0 | 0.00 | 0.00 | 0.00 | 79 | 1017.0 |
| 20260831121052 | 21 | 174 | 0.0 | 0.0 | 0.00 | 0.00 | 0.00 | 80 | 1016.9 |
| 20260831120551 | 21 | 176 | 0.0 | 0.0 | 0.00 | 0.00 | 0.00 | 80 | 1017.0 |
| 20260831120047 | 21 | 171 | 0.0 | 0.0 | 0.00 | 0.00 | 0.00 | 80 | 1016.8 |
| 20260831115542 | 21 | 189 | 0.0 | 0.0 | 0.00 | 0.00 | 0.00 | 80 | 1016.9 |
| 20260831115037 | 21 | 172 | 0.0 | 0.0 | 0.00 | 0.00 | 0.00 | 80 | 1016.8 |
| 20260831114536 | 21 | 171 | 0.0 | 0.0 | 0.00 | 0.00 | 0.00 | 80 | 1016.6 |
| 20260831114031 | 20 | 175 | 0.0 | 0.0 | 0.00 | 0.00 | 0.00 | 80 | 1016.7 |
| 20260831113531 | 20 | 175 | 0.0 | 0.0 | 0.00 | 0.00 | 0.00 | 81 | 1016.4 |
| 20260831113027 | 21 | 178 | 0.0 | 0.0 | 0.00 | 0.00 | 0.00 | 80 | 1016.6 |
| 20260831112526 | 21 | 166 | 0.0 | 0.0 | 0.00 | 0.00 | 0.00 | 79 | 1016.4 |
| 20260831112021 | 21 | 142 | 0.0 | 0.0 | 0.00 | 0.00 | 0.00 | 79 | 1016.5 |
| 20260831111517 | 21 | 177 | 0.0 | 0.0 | 0.00 | 0.00 | 0.00 | 79 | 1016.2 |
| 20260831111012 | 21 | 174 | 0.0 | 0.0 | 0.00 | 0.00 | 0.00 | 79 | 1016.2 |
| 20260831110508 | 21 | 175 | 0.0 | 0.0 | 0.00 | 0.00 | 0.00 | 78 | 1016.4 |
| 20260831110008 | 21 | 175 | 0.0 | 0.0 | 0.00 | 0.00 | 0.00 | 79 | 1016.1 |
| 20260831105502 | 21 | 172 | 0.0 | 0.0 | 0.00 | 0.00 | 0.00 | 79 | 1016.2 |
| 20260831104957 | 21 | 172 | 0.0 | 0.0 | 0.00 | 0.00 | 0.00 | 79 | 1016.0 |
| 20260831104454 | 21 | 181 | 0.0 | 0.0 | 0.00 | 0.00 | 0.00 | 79 | 1016.1 |
| 20260831103949 | 21 | 160 | 0.0 | 0.0 | 0.00 | 0.00 | 0.00 | 79 | 1016.1 |
| 20260831103444 | 21 | 178 | 0.0 | 0.0 | 0.00 | 0.00 | 0.00 | 79 | 1016.1 |
| 20260831102940 | 21 | 175 | 0.0 | 0.0 | 0.00 | 0.00 | 0.00 | 79 | 1016.1 |
| 20260831102440 | 21 | 173 | 0.0 | 0.0 | 0.00 | 0.00 | 0.00 | 79 | 1016.2 |
| 20260831101940 | 21 | 182 | 0.0 | 0.0 | 0.00 | 0.00 | 0.00 | 79 | 1016.1 |
| 20260831101435 | 21 | 166 | 0.0 | 0.0 | 0.00 | 0.00 | 0.00 | 78 | 1015.9 |
| 20260831100931 | 21 | 177 | 0.0 | 0.0 | 0.00 | 0.00 | 0.00 | 78 | 1016.1 |
| 20260831100427 | 21 | 165 | 0.0 | 0.0 | 0.00 | 0.00 | 0.00 | 77 | 1016.0 |
| 20260831095921 | 21 | 166 | 0.0 | 0.0 | 0.00 | 0.00 | 0.00 | 77 | 1016.0 |